Wind_Speed
14 13 13 13 13 14 14 15 15 14 14 13 13 13 13 12 12 12 13 13 12 11 11 11 11 11 11 12 13 13 14 14 13 12 10 9 8 6 5 4 4 4 4 4 4 4 5 5 5 6 6 6 7 8 9 10 11 11 12 13 13 14
14 13 12 12 12 13 13 14 14 13 13 13 13 13 14 13 13 13 13 13 12 11 10 10 10 10 10 11 12 12 13 13 13 11 10 9 7 6 4 4 3 3 3 3 3 4 4 5 5 6 6 7 7 8 9 10 11 12 13 13 14 14
15 13 12 11 11 12 12 13 13 13 13 13 13 14 15 14 13 13 13 13 13 11 10 10 10 10 10 10 11 11 12 12 12 11 9 8 7 6 5 4 4 3 2 3 3 4 5 5 6 7 7 8 8 9 11 12 13 13 14 14 14 14
15 14 13 12 12 13 13 13 12 12 13 13 14 15 16 15 15 14 14 14 14 13 11 11 10 10 10 10 10 10 11 11 11 10 9 8 7 6 5 4 4 3 3 3 3 4 5 6 7 8 9 9 10 11 12 13 14 14 15 16 16 16
15 14 13 13 14 14 14 14 12 12 13 14 15 16 17 17 17 16 15 15 14 14 13 12 11 11 11 10 9 9 10 11 11 10 9 8 7 6 5 4 4 4 4 4 4 5 7 8 9 10 10 11 11 11 12 13 14 15 16 17 17 18
15 15 15 15 15 16 16 15 13 13 14 15 15 17 18 19 19 18 17 15 15 15 14 13 13 13 12 10 8 8 9 10 10 10 9 8 7 6 5 5 5 5 6 6 6 7 8 9 10 10 11 12 12 12 12 13 14 16 17 18 18 19
15 16 17 17 17 18 18 16 14 14 14 14 15 17 19 20 20 20 18 16 14 14 14 14 14 14 14 12 9 8 9 9 10 9 9 9 8 7 6 7 7 8 8 9 8 8 9 9 10 11 11 12 13 13 13 14 15 17 18 19 19 20
15 15 16 16 16 17 17 15 14 14 13 13 15 17 19 21 21 21 19 17 15 14 14 14 14 13 14 14 12 10 9 9 10 10 9 9 9 8 8 9 9 9 10 10 10 10 10 10 10 11 12 13 13 14 14 15 16 17 19 20 20 21
16 14 14 13 13 14 14 14 13 13 13 13 15 17 20 21 21 21 20 18 16 15 15 15 15 14 14 15 15 14 11 9 10 10 10 10 10 10 10 10 10 10 11 11 11 11 11 10 11 11 12 13 14 14 15 16 17 18 19 20 21 22
16 15 14 14 12 12 14 14 14 13 12 13 15 17 20 21 21 21 21 19 17 16 17 17 18 18 18 18 18 16 13 11 10 11 11 11 11 11 11 11 11 11 12 12 12 12 11 11 12 12 13 14 14 15 16 17 18 19 20 21 22 23
16 16 16 16 13 12 14 16 16 15 14 14 16 18 20 22 21 21 21 19 18 18 18 18 18 18 19 19 18 17 14 11 10 11 12 12 12 12 12 12 12 13 13 13 13 12 12 12 13 13 14 15 15 16 17 18 19 20 21 22 23 23
16 17 18 18 15 13 13 15 16 16 16 16 17 19 21 21 20 20 20 19 19 19 18 17 16 16 16 16 16 15 15 12 11 11 12 13 13 13 13 13 14 14 14 14 13 13 13 13 13 14 15 16 16 17 18 19 21 21 22 23 24 25
15 17 18 19 16 14 15 16 18 19 19 17 18 20 21 20 19 19 20 19 19 18 17 16 15 14 13 13 14 15 15 13 12 12 12 12 13 13 13 14 14 15 15 14 14 14 14 14 14 15 17 17 18 19 20 20 21 22 23 24 25 26
16 17 18 19 17 17 17 18 20 20 19 18 19 21 20 19 19 18 19 19 18 17 15 14 13 12 13 13 13 15 15 13 12 12 11 12 12 13 14 14 15 15 14 15 15 15 15 15 15 16 18 19 19 20 20 21 22 23 24 24 25 25
18 18 18 19 18 17 17 16 17 17 18 19 20 20 20 19 18 18 19 18 17 16 14 14 13 13 13 13 13 15 15 13 12 11 11 11 12 13 14 15 15 15 15 16 16 16 16 15 15 17 19 20 20 20 21 22 23 23 24 24 25 25
20 19 19 19 19 19 18 17 17 17 18 19 19 18 18 19 18 18 18 18 17 16 15 15 15 14 13 13 12 14 14 12 11 10 10 11 12 13 15 15 15 15 16 17 17 17 16 16 16 18 20 21 21 22 22 23 23 24 24 25 26 26
21 20 20 20 20 21 20 19 19 19 18 18 17 17 18 18 18 18 18 17 17 16 17 16 15 13 13 12 12 13 12 11 9 9 10 11 12 14 15 16 16 17 17 18 18 18 18 18 18 19 21 22 23 23 23 23 24 25 26 27 27 28
20 21 20 20 20 20 20 20 20 19 18 18 18 18 19 19 18 18 18 18 17 17 17 16 14 12 12 11 11 11 10 9 8 9 10 11 13 15 16 17 17 18 18 18 18 19 19 20 20 21 22 22 23 23 24 25 26 27 28 28 28 27
20 21 20 19 19 18 18 19 19 19 20 20 20 20 19 18 18 18 18 18 17 17 17 16 14 12 12 11 11 10 9 8 8 9 10 12 14 16 17 18 18 18 18 18 19 20 21 22 22 22 22 23 24 24 25 27 28 29 29 28 28 27
20 20 20 20 20 19 19 20 20 20 20 20 20 20 19 18 19 19 19 18 17 17 17 16 14 12 12 12 11 10 9 8 9 10 11 13 14 16 17 18 18 18 18 19 20 22 23 24 23 23 23 24 25 26 27 28 29 30 29 28 28 27
17 19 20 20 20 20 19 19 20 20 19 19 20 20 19 19 20 19 19 18 17 16 15 14 13 12 12 11 11 10 9 9 10 11 12 13 15 16 16 17 17 18 19 20 22 23 25 25 25 25 25 26 27 28 28 29 29 29 29 28 28 27
16 17 17 16 16 17 17 18 20 21 20 20 20 20 20 21 20 19 18 18 16 15 13 12 13 13 12 11 11 10 9 9 10 11 12 13 15 15 16 17 17 19 20 21 23 24 25 26 27 28 28 28 29 30 30 30 30 29 29 28 28 27
15 16 14 13 14 16 17 19 21 22 22 21 21 21 21 21 20 18 17 16 15 13 12 13 13 12 11 11 11 10 9 9 10 11 13 14 15 15 16 17 18 20 21 22 23 25 26 27 28 29 29 30 31 31 31 31 31 30 30 29 28 27
16 17 16 16 16 17 18 21 22 23 23 22 22 22 22 21 19 17 16 14 13 12 12 14 13 12 12 11 10 9 9 9 10 12 13 14 15 16 17 18 19 21 22 23 24 25 26 27 28 29 30 31 32 32 32 32 31 30 30 29 29 28
17 19 19 19 18 17 19 21 22 23 23 23 23 22 22 20 18 17 14 11 11 11 13 13 12 12 12 11 9 9 9 10 11 12 14 15 16 17 19 20 21 22 22 23 24 25 26 27 28 29 30 30 31 31 31 31 30 30 30 30 30 30
19 22 21 18 16 17 19 21 22 22 22 23 22 22 21 19 17 15 13 11 12 13 12 11 11 11 11 10 9 8 9 10 12 13 14 16 17 19 20 22 22 23 23 24 25 26 27 28 28 29 30 30 31 30 29 28 28 29 30 31 31 30
21 23 19 15 16 18 20 21 21 21 21 22 22 21 20 18 15 13 12 13 14 14 12 11 10 10 10 9 8 9 10 11 12 14 15 17 19 20 22 22 23 23 24 25 26 27 27 28 29 30 30 30 29 29 28 28 28 29 30 31 32 32
20 20 16 14 16 18 18 18 18 18 20 23 22 20 19 16 14 12 13 15 15 13 12 10 10 10 9 8 9 10 11 12 13 15 16 18 20 21 22 23 24 25 26 26 27 28 28 29 30 30 29 29 28 28 28 28 28 29 29 29 30 33
19 18 16 16 16 16 16 15 15 17 18 20 19 17 16 14 13 11 14 17 16 13 11 11 10 10 9 9 10 11 12 13 14 16 17 19 20 22 23 24 25 26 27 27 28 29 30 30 30 29 29 28 28 28 28 29 29 29 28 28 30 34
20 18 17 17 16 15 15 14 15 17 18 18 17 15 13 12 11 13 17 18 14 12 11 11 10 9 9 9 10 11 13 14 16 17 18 20 21 23 24 25 26 27 27 28 29 30 30 30 29 29 28 28 29 29 29 30 29 29 29 31 34 36
19 16 16 18 17 15 15 15 16 17 18 18 16 14 12 11 13 16 18 15 12 12 11 10 8 8 9 10 11 13 14 15 16 17 19 21 22 24 25 26 26 27 28 29 30 30 30 29 29 29 29 29 30 30 30 30 30 30 32 34 35 36
16 15 16 18 18 16 15 16 16 16 17 16 15 14 13 14 17 18 16 13 12 12 9 8 7 8 10 11 13 14 15 16 17 19 20 22 23 24 25 26 27 28 29 29 30 30 29 29 29 29 29 30 30 30 30 30 30 31 33 34 35 36
15 16 17 17 16 15 14 15 14 14 15 16 16 15 15 17 18 15 13 12 11 10 7 7 8 9 11 13 14 15 15 16 18 20 21 23 24 25 26 27 27 28 29 29 30 30 30 29 29 29 30 30 30 30 30 30 31 32 33 34 36 38
15 15 16 14 14 14 13 13 14 14 16 17 17 17 17 17 15 12 11 11 9 8 7 7 9 11 12 13 14 15 16 17 19 21 22 23 24 25 26 27 28 29 29 30 30 30 30 29 29 30 31 31 30 30 30 30 31 32 34 36 38 40
15 15 14 12 11 12 12 12 13 15 17 17 17 17 16 13 11 11 10 9 8 8 8 9 10 11 12 12 14 15 17 18 20 21 23 24 25 26 27 28 29 30 30 30 30 30 30 30 30 31 31 31 30 29 30 30 32 34 36 38 39 41
14 14 13 12 11 11 11 12 14 16 18 18 18 17 14 11 11 10 10 10 10 9 9 10 10 11 11 13 14 16 17 19 21 22 23 25 26 27 28 29 30 30 31 31 30 30 30 31 31 31 31 30 29 29 30 32 34 36 37 39 41 42
14 14 14 14 13 13 12 13 15 17 18 18 17 15 13 12 11 11 11 11 10 10 9 10 10 11 12 13 15 16 18 19 21 23 24 25 27 28 29 30 31 31 31 31 31 30 31 31 31 31 30 29 29 30 31 33 35 37 39 41 43 44
Wind_Direction
296 298 297 294 293 294 295 298 299 298 297 294 291 292 293 297 303 302 301 304 307 311 313 314 311 311 319 325 330 334 339 341 343 346 347 344 338 332 329 325 316 308 306 312 323 333 341 344 346 348 345 339 334 333 336 342 348 351 351 351 351 349
290 292 292 293 293 295 300 302 302 298 293 289 289 289 289 294 298 297 298 299 300 301 304 305 302 303 310 317 322 328 334 338 340 342 344 342 339 332 322 317 311 306 304 311 323 336 346 348 348 349 348 345 340 336 336 339 342 344 344 346 346 344
285 286 286 289 291 295 302 305 302 295 288 286 285 284 286 289 291 293 294 293 293 295 296 297 295 295 300 306 314 322 328 333 336 338 340 339 337 332 320 313 313 309 305 309 323 338 349 352 351 350 349 348 346 342 339 339 338 336 335 336 337 336
281 282 285 288 290 294 299 301 299 292 285 282 280 280 282 284 286 287 287 287 288 290 291 291 290 289 292 297 308 317 320 326 330 334 335 333 334 332 323 315 314 312 310 316 329 340 346 349 349 347 346 344 343 341 338 336 334 330 327 326 326 326
286 286 290 293 292 291 290 291 291 286 281 279 279 279 280 281 282 283 284 285 287 288 289 290 289 287 287 291 301 310 311 316 323 326 325 324 328 331 326 316 312 311 313 325 334 338 341 343 343 340 338 336 335 334 332 329 326 322 319 318 319 319
296 295 297 298 295 292 284 282 283 282 280 280 282 282 281 283 284 285 286 287 287 288 289 292 291 289 286 284 289 296 298 305 312 315 316 316 320 324 325 321 318 317 319 325 329 331 333 333 333 331 329 327 326 326 324 322 319 316 314 313 314 314
299 300 304 303 299 294 285 279 277 278 281 283 285 284 283 284 285 286 286 286 285 286 289 290 291 291 288 283 276 273 279 291 299 304 308 309 310 314 318 319 318 317 318 320 320 321 322 323 324 324 323 321 321 320 318 316 314 312 310 309 309 308
296 298 303 305 301 295 286 279 272 271 276 282 282 281 282 282 284 286 286 285 283 284 286 286 287 288 288 283 272 261 262 273 283 290 293 297 300 303 309 313 314 313 312 312 311 311 314 317 319 319 318 316 316 315 313 311 309 307 306 305 304 303
289 289 294 301 303 296 284 275 266 263 269 276 279 280 281 282 283 285 285 284 284 284 283 283 282 280 278 275 270 261 253 257 268 277 282 288 294 299 305 308 309 307 303 302 302 304 309 312 313 314 313 311 310 309 308 307 305 303 303 302 302 302
281 279 284 289 296 293 280 270 263 261 266 272 277 280 280 281 283 284 284 284 284 284 284 284 281 277 272 266 265 261 250 248 261 271 280 287 292 297 301 300 299 297 295 295 296 301 306 308 310 312 309 306 304 304 304 303 303 302 302 303 303 303
275 273 277 280 285 284 275 267 262 261 264 269 276 279 280 280 283 283 283 284 284 285 286 286 285 282 276 265 259 255 247 247 259 270 281 287 290 292 294 293 292 290 289 290 294 299 301 304 307 307 304 300 300 302 303 304 304 304 305 305 305 305
271 270 274 276 277 274 268 265 264 265 264 267 274 279 280 280 281 281 282 283 284 285 286 288 288 287 281 266 251 245 245 246 255 265 276 283 285 286 286 285 285 285 286 288 291 294 296 302 305 303 301 301 303 305 306 307 308 308 309 309 308 307
265 267 271 273 270 261 257 259 265 270 269 269 274 278 280 280 279 278 279 281 281 282 283 285 286 284 279 265 246 238 240 244 253 262 271 276 280 279 278 277 279 280 283 286 289 292 298 303 303 302 301 302 305 307 308 309 309 310 309 308 307 306
265 266 267 267 264 258 254 258 264 269 269 268 273 277 280 278 276 275 275 277 277 276 277 278 280 281 276 265 245 235 237 244 252 261 267 272 273 273 272 274 276 280 284 287 289 293 297 300 301 302 302 303 305 305 307 308 309 308 306 306 305 305
265 264 262 260 259 255 254 259 263 265 265 267 273 278 278 275 272 272 272 272 269 268 269 270 275 278 276 266 246 233 236 244 254 261 267 271 271 270 272 275 278 282 285 287 288 291 294 298 301 301 301 301 303 305 307 308 308 307 306 306 306 306
263 260 257 256 255 256 259 262 263 261 261 267 274 277 274 270 269 268 268 266 263 263 265 267 271 275 275 266 245 231 234 245 256 264 268 271 272 274 276 278 281 284 286 287 289 292 296 300 301 300 300 302 305 307 309 309 308 308 308 308 308 307
259 258 255 253 255 260 264 265 262 258 258 269 277 273 268 267 267 266 265 264 262 263 265 266 269 272 272 263 243 232 238 249 259 266 271 275 278 279 280 282 285 287 289 290 293 297 300 302 302 301 303 305 308 310 310 310 310 310 310 310 309 308
259 259 256 254 258 261 263 263 259 256 261 272 275 268 265 266 267 266 264 264 264 262 262 264 266 266 262 252 238 235 243 253 262 271 277 281 284 284 285 286 288 291 292 294 297 300 301 303 304 305 306 307 309 310 310 310 311 311 311 310 310 309
261 260 256 256 258 260 260 258 257 259 264 269 268 264 263 266 266 264 263 263 263 261 260 260 261 257 247 239 233 235 243 252 262 273 279 284 286 287 287 289 290 292 294 296 299 301 302 304 305 305 306 307 308 309 310 311 311 311 311 310 310 309
262 260 257 257 259 262 261 259 259 261 265 265 263 261 261 262 261 260 261 261 260 261 261 260 258 247 235 229 227 231 240 251 263 273 279 283 284 285 287 290 293 295 297 299 302 303 304 305 305 306 307 308 309 310 311 312 311 311 310 310 310 310
260 256 258 260 261 264 263 260 260 261 265 267 264 258 256 257 257 257 258 258 259 259 259 260 256 239 226 221 221 227 237 250 263 272 278 282 284 286 288 291 294 297 300 302 303 304 304 305 307 308 309 310 310 311 311 310 309 309 308 309 310 310
259 257 259 260 261 263 262 259 259 261 266 270 265 255 252 253 255 256 255 254 254 252 253 256 247 232 221 217 221 229 239 253 265 274 279 283 286 288 289 291 294 297 300 302 302 303 303 305 306 308 310 310 310 311 310 309 308 308 309 310 310 310
259 259 254 257 264 265 261 257 257 261 266 266 260 251 249 252 255 254 252 250 248 244 244 245 236 225 220 220 225 233 244 256 267 274 280 284 285 286 288 291 295 297 299 299 300 301 301 303 305 308 310 311 311 311 310 309 310 310 310 311 311 311
254 252 250 261 269 263 258 256 258 263 264 259 251 247 248 252 254 251 248 246 247 240 231 230 226 222 226 228 231 238 248 260 269 277 282 285 286 288 290 293 295 297 297 298 298 299 300 303 305 307 309 310 309 309 308 309 310 311 312 313 314 314
247 247 251 261 265 258 256 259 261 262 261 255 248 245 249 253 252 246 242 239 241 236 227 225 226 228 231 233 237 245 258 269 277 282 285 287 289 291 293 295 296 297 297 297 298 299 301 304 306 308 308 307 306 305 306 308 310 311 313 314 315 315
246 247 251 260 263 259 258 259 256 254 254 252 248 246 251 254 248 240 235 232 233 235 235 231 228 229 231 235 244 256 268 275 280 283 285 288 290 293 296 297 298 298 299 299 300 302 303 305 306 306 305 303 302 303 305 308 310 311 313 313 314 313
248 250 254 259 258 255 255 255 253 249 246 246 247 250 253 249 239 231 228 229 231 234 236 231 225 226 228 235 249 261 268 274 278 282 286 289 292 295 297 298 299 301 302 303 304 305 306 306 305 302 301 301 302 306 309 311 312 312 311 311 312 312
254 258 256 252 250 252 253 252 253 253 248 249 252 254 251 237 223 222 227 233 236 232 228 225 224 225 229 238 250 260 267 274 279 284 288 292 294 296 298 301 302 304 305 306 307 307 306 305 303 301 301 303 306 309 311 311 312 311 309 308 309 310
261 259 247 242 248 253 255 252 249 248 250 257 258 254 248 232 216 222 235 238 236 228 221 220 222 226 234 245 255 264 272 278 284 289 292 295 298 300 302 304 306 307 307 308 307 306 305 303 302 303 305 308 310 311 311 311 311 309 308 307 308 310
254 252 244 244 251 254 255 252 244 243 249 257 256 249 242 230 223 230 236 235 229 221 216 217 223 231 243 255 265 273 279 285 289 293 297 300 302 304 306 307 308 308 308 307 307 305 304 303 305 307 310 312 313 313 313 312 311 311 311 312 312 313
253 253 250 248 249 252 254 253 247 246 250 251 247 240 234 233 234 233 231 227 220 215 214 217 229 244 258 270 277 282 286 291 295 299 302 304 306 307 308 309 309 308 308 308 307 306 306 307 310 312 313 314 315 315 314 313 313 313 314 314 315 315
258 253 253 251 250 255 255 251 250 248 246 243 238 234 234 236 234 229 226 219 215 215 216 226 245 263 274 281 284 287 291 296 301 304 306 307 309 310 310 310 310 310 309 309 308 309 310 312 314 314 314 314 314 313 312 312 313 314 314 315 316 316
259 252 253 254 252 254 251 248 251 246 239 237 237 234 232 232 228 224 220 214 214 219 226 243 261 273 279 281 285 290 296 302 306 308 309 310 311 311 311 311 311 311 312 311 312 313 314 315 315 314 313 313 312 311 311 313 314 316 317 318 318 318
258 251 248 247 245 247 249 252 252 243 235 235 236 232 227 227 224 218 215 215 221 230 240 255 266 273 277 281 288 296 302 307 310 311 313 314 313 313 313 313 313 314 314 315 315 316 316 316 315 314 313 311 311 312 313 315 317 319 320 320 320 320
254 253 250 246 242 243 249 251 246 239 235 234 233 232 228 222 216 213 217 223 231 239 249 259 265 270 277 286 295 302 307 311 314 315 315 316 315 316 316 316 317 317 317 317 317 316 316 316 315 313 312 312 312 314 317 319 320 321 321 320 320 319
252 254 252 247 245 249 255 252 243 238 235 231 232 232 226 214 210 213 221 229 235 243 251 257 264 273 283 294 301 307 312 316 317 317 317 318 318 319 319 319 319 318 318 317 316 316 316 315 314 313 312 313 315 317 319 321 321 321 321 320 319 318
247 247 246 245 248 255 259 253 241 235 231 229 228 224 215 210 212 218 224 231 238 244 250 258 268 281 292 301 307 312 316 319 319 319 320 321 321 321 322 321 321 320 319 317 316 315 315 314 313 312 313 315 317 319 321 321 321 321 321 320 319 318
Height
5859 5859 5859 5860 5859 5859 5859 5859 5859 5860 5861 5861 5861 5860 5860 5860 5861 5861 5861 5861 5861 5861 5861 5861 5861 5861 5860 5859 5858 5857 5856 5856 5855 5854 5854 5853 5853 5853 5852 5852 5852 5851 5851 5850 5850 5849 5848 5847 5847 5846 5846 5845 5844 5843 5842 5842 5841 5840 5839 5838 5837 5837
5857 5858 5858 5858 5858 5858 5858 5858 5859 5859 5860 5860 5859 5859 5859 5860 5860 5860 5860 5860 5860 5860 5860 5860 5860 5859 5859 5858 5857 5857 5856 5855 5854 5854 5853 5853 5853 5852 5852 5852 5851 5851 5851 5850 5849 5848 5848 5847 5846 5846 5845 5844 5843 5842 5842 5841 5840 5839 5838 5837 5837 5836
5856 5856 5856 5856 5856 5856 5857 5857 5858 5858 5858 5858 5858 5858 5858 5858 5858 5858 5858 5858 5858 5858 5858 5858 5858 5858 5858 5857 5857 5856 5855 5854 5853 5853 5852 5852 5852 5852 5851 5851 5851 5851 5850 5849 5849 5848 5847 5846 5846 5845 5845 5844 5843 5842 5841 5840 5839 5838 5837 5836 5836 5835
5854 5854 5854 5855 5855 5855 5855 5856 5856 5857 5857 5857 5857 5857 5857 5857 5857 5857 5857 5856 5856 5857 5857 5857 5857 5857 5856 5856 5856 5855 5854 5853 5853 5852 5852 5851 5851 5851 5851 5850 5850 5850 5850 5849 5848 5847 5847 5846 5845 5845 5844 5844 5843 5842 5841 5840 5839 5838 5836 5835 5834 5833
5853 5853 5853 5853 5853 5853 5854 5854 5855 5855 5855 5855 5855 5855 5856 5855 5855 5855 5855 5855 5855 5855 5855 5855 5855 5855 5855 5855 5854 5854 5853 5852 5852 5851 5851 5850 5850 5850 5850 5849 5849 5849 5849 5848 5847 5847 5846 5845 5845 5844 5844 5843 5842 5841 5840 5839 5838 5837 5836 5835 5833 5832
5852 5852 5852 5852 5852 5852 5852 5852 5853 5853 5853 5853 5854 5854 5854 5854 5854 5853 5853 5853 5853 5853 5853 5854 5854 5854 5854 5853 5853 5853 5852 5852 5851 5850 5850 5849 5849 5848 5848 5848 5848 5848 5847 5847 5847 5846 5845 5844 5844 5843 5843 5842 5842 5841 5840 5839 5838 5837 5835 5834 5833 5831
5851 5850 5851 5851 5851 5850 5850 5851 5851 5852 5852 5852 5852 5853 5853 5853 5852 5852 5852 5852 5851 5851 5851 5852 5852 5852 5852 5852 5851 5851 5851 5851 5850 5849 5849 5848 5848 5847 5847 5847 5847 5847 5846 5846 5846 5845 5844 5843 5843 5842 5842 5841 5841 5840 5839 5838 5836 5835 5834 5833 5832 5830
5849 5849 5849 5849 5849 5849 5849 5849 5849 5849 5850 5850 5850 5850 5851 5851 5851 5851 5850 5850 5849 5849 5849 5850 5850 5851 5851 5851 5850 5850 5849 5849 5849 5848 5847 5847 5847 5846 5846 5846 5846 5846 5845 5845 5845 5844 5843 5842 5842 5841 5840 5840 5839 5838 5837 5836 5835 5834 5833 5831 5830 5828
5847 5847 5847 5847 5847 5847 5847 5847 5847 5847 5848 5848 5848 5849 5849 5849 5849 5849 5849 5848 5848 5848 5847 5848 5848 5848 5849 5849 5849 5848 5847 5847 5847 5847 5846 5846 5846 5845 5845 5845 5845 5844 5844 5844 5843 5843 5842 5841 5840 5840 5839 5838 5837 5836 5835 5834 5833 5832 5831 5829 5828 5826
5845 5846 5845 5845 5845 5845 5845 5845 5845 5845 5846 5846 5846 5847 5847 5847 5847 5847 5847 5846 5846 5846 5845 5845 5846 5846 5846 5847 5847 5847 5846 5845 5845 5845 5845 5845 5845 5844 5844 5844 5843 5843 5843 5842 5842 5841 5841 5840 5839 5838 5837 5836 5835 5834 5833 5832 5830 5829 5828 5827 5825 5823
5843 5844 5843 5843 5843 5844 5844 5844 5844 5844 5844 5844 5845 5845 5846 5846 5846 5846 5845 5844 5844 5843 5843 5843 5843 5843 5843 5843 5844 5845 5845 5844 5844 5844 5844 5844 5843 5843 5843 5842 5842 5841 5841 5841 5840 5840 5839 5838 5837 5837 5836 5835 5834 5832 5831 5829 5828 5827 5826 5824 5823 5821
5841 5841 5841 5841 5841 5842 5842 5843 5843 5843 5843 5843 5843 5844 5844 5844 5844 5844 5843 5842 5841 5841 5840 5840 5840 5840 5840 5841 5842 5843 5843 5843 5842 5842 5842 5842 5842 5842 5841 5841 5840 5840 5840 5839 5839 5838 5837 5837 5836 5835 5834 5832 5831 5830 5828 5827 5825 5824 5823 5822 5820 5818
5839 5839 5839 5839 5839 5840 5840 5841 5841 5842 5842 5841 5841 5842 5842 5843 5843 5842 5841 5840 5839 5839 5838 5838 5838 5838 5838 5838 5839 5840 5841 5841 5841 5840 5840 5840 5840 5840 5839 5839 5839 5839 5838 5838 5837 5836 5835 5835 5834 5833 5832 5830 5829 5828 5826 5825 5823 5822 5821 5819 5818 5816
5836 5837 5837 5837 5837 5838 5838 5839 5839 5840 5840 5840 5840 5840 5841 5841 5841 5840 5839 5838 5838 5837 5837 5836 5836 5835 5835 5836 5837 5838 5839 5839 5839 5839 5839 5839 5839 5838 5838 5837 5837 5837 5837 5836 5835 5834 5833 5833 5833 5832 5830 5829 5827 5826 5824 5823 5821 5820 5819 5817 5816 5814
5834 5834 5834 5834 5835 5835 5836 5837 5837 5838 5838 5838 5838 5839 5839 5839 5839 5838 5837 5836 5836 5835 5835 5835 5834 5834 5834 5834 5834 5835 5836 5837 5837 5837 5837 5837 5837 5837 5837 5836 5836 5836 5835 5835 5834 5833 5832 5832 5831 5830 5828 5827 5826 5824 5822 5821 5820 5818 5817 5815 5813 5811
5831 5831 5832 5832 5833 5833 5834 5835 5836 5836 5836 5837 5837 5836 5837 5837 5837 5836 5835 5834 5834 5834 5833 5833 5833 5832 5832 5832 5832 5833 5834 5834 5835 5835 5836 5836 5836 5836 5835 5835 5835 5834 5834 5833 5832 5831 5830 5830 5829 5828 5826 5825 5823 5822 5820 5819 5817 5816 5814 5812 5810 5809
5829 5829 5829 5830 5830 5831 5832 5833 5833 5834 5834 5835 5835 5834 5834 5834 5834 5834 5833 5832 5832 5832 5832 5832 5831 5831 5831 5831 5831 5831 5832 5832 5833 5833 5834 5834 5835 5835 5834 5834 5834 5833 5833 5832 5830 5829 5828 5828 5827 5826 5824 5822 5820 5819 5818 5816 5815 5813 5811 5810 5808 5806
5826 5826 5827 5827 5828 5829 5829 5830 5831 5832 5832 5832 5832 5832 5831 5832 5832 5831 5831 5830 5831 5831 5830 5830 5830 5829 5829 5829 5829 5830 5830 5831 5832 5832 5833 5833 5833 5833 5833 5833 5832 5832 5831 5830 5828 5827 5826 5826 5825 5824 5822 5820 5818 5817 5815 5814 5812 5810 5808 5807 5805 5802
5823 5823 5824 5825 5826 5826 5827 5828 5829 5829 5830 5830 5829 5829 5829 5830 5830 5829 5829 5829 5829 5829 5829 5828 5828 5828 5828 5828 5828 5828 5829 5829 5830 5831 5831 5832 5832 5832 5831 5831 5831 5830 5829 5828 5826 5825 5824 5823 5823 5821 5820 5818 5816 5814 5813 5811 5809 5807 5805 5803 5802 5799
5821 5822 5822 5823 5824 5825 5825 5826 5827 5827 5827 5827 5826 5826 5827 5827 5827 5827 5827 5827 5827 5827 5827 5826 5826 5826 5826 5827 5827 5827 5827 5828 5828 5829 5829 5830 5830 5831 5830 5829 5829 5828 5827 5826 5824 5823 5821 5821 5820 5819 5817 5815 5813 5812 5810 5808 5806 5804 5802 5800 5798 5796
5820 5821 5821 5821 5822 5823 5823 5824 5824 5825 5824 5824 5824 5824 5825 5825 5825 5826 5826 5826 5825 5825 5824 5824 5824 5824 5825 5825 5825 5825 5826 5826 5827 5827 5828 5828 5829 5829 5829 5828 5827 5826 5825 5823 5822 5821 5819 5817 5816 5815 5814 5812 5811 5809 5808 5806 5804 5802 5800 5798 5796 5793
5818 5819 5819 5819 5820 5820 5821 5822 5822 5822 5822 5822 5821 5822 5822 5823 5823 5824 5824 5824 5823 5822 5822 5823 5823 5823 5823 5823 5823 5824 5824 5824 5825 5826 5826 5827 5827 5827 5827 5826 5825 5824 5823 5821 5820 5818 5817 5815 5813 5812 5811 5809 5808 5806 5805 5803 5800 5799 5797 5795 5793 5790
5816 5817 5817 5817 5818 5818 5819 5819 5820 5820 5820 5819 5819 5820 5820 5821 5822 5822 5822 5821 5821 5821 5821 5822 5822 5822 5822 5822 5822 5822 5822 5823 5823 5824 5824 5825 5825 5825 5825 5824 5823 5822 5821 5820 5818 5816 5814 5813 5811 5809 5808 5806 5804 5803 5801 5799 5797 5795 5793 5791 5789 5787
5814 5815 5815 5815 5815 5816 5816 5817 5818 5818 5818 5817 5817 5817 5818 5819 5820 5819 5819 5819 5819 5819 5820 5820 5820 5820 5821 5821 5821 5821 5821 5821 5822 5822 5823 5823 5823 5823 5823 5822 5822 5820 5819 5818 5816 5814 5812 5811 5809 5807 5805 5803 5802 5800 5798 5796 5794 5792 5789 5787 5785 5783
5812 5812 5812 5812 5813 5814 5815 5815 5816 5816 5816 5815 5815 5815 5816 5817 5817 5817 5817 5817 5817 5818 5818 5818 5819 5819 5819 5819 5819 5819 5820 5820 5820 5821 5821 5821 5821 5821 5820 5820 5819 5818 5817 5815 5814 5812 5810 5809 5807 5805 5803 5801 5799 5798 5796 5794 5791 5788 5786 5784 5782 5780
5808 5808 5808 5811 5812 5813 5813 5813 5813 5814 5814 5814 5814 5814 5815 5815 5815 5815 5815 5816 5816 5817 5817 5817 5817 5818 5818 5818 5818 5818 5818 5819 5819 5819 5819 5819 5819 5818 5818 5817 5817 5815 5814 5813 5811 5810 5808 5806 5805 5803 5801 5799 5797 5796 5794 5791 5788 5785 5782 5780 5778 5777
5804 5805 5807 5810 5811 5811 5811 5811 5811 5811 5812 5812 5812 5812 5813 5813 5813 5814 5814 5814 5815 5815 5815 5816 5816 5816 5816 5816 5817 5817 5817 5818 5818 5818 5818 5817 5817 5816 5816 5815 5814 5812 5811 5810 5809 5807 5806 5804 5802 5800 5798 5797 5795 5793 5790 5788 5785 5783 5780 5777 5775 5773
5803 5805 5808 5809 5808 5808 5808 5808 5808 5809 5810 5810 5810 5811 5810 5811 5811 5812 5813 5813 5813 5814 5814 5814 5814 5815 5815 5815 5815 5816 5816 5817 5817 5816 5816 5816 5815 5814 5813 5812 5811 5809 5808 5807 5806 5804 5803 5801 5799 5797 5795 5793 5791 5789 5787 5784 5782 5780 5778 5775 5772 5770
5804 5804 5805 5805 5806 5806 5806 5806 5807 5808 5808 5808 5809 5809 5808 5809 5810 5811 5811 5811 5812 5812 5812 5813 5813 5813 5813 5814 5814 5815 5815 5815 5815 5815 5814 5814 5813 5812 5811 5809 5808 5806 5805 5804 5803 5801 5800 5798 5796 5794 5792 5790 5787 5785 5783 5781 5779 5777 5776 5773 5771 5768
5800 5801 5803 5803 5803 5803 5804 5805 5805 5806 5806 5806 5807 5807 5807 5808 5809 5809 5810 5810 5811 5811 5811 5812 5812 5812 5812 5813 5813 5813 5813 5813 5813 5813 5812 5811 5810 5809 5808 5807 5805 5804 5803 5801 5800 5799 5797 5795 5792 5790 5788 5786 5783 5781 5779 5777 5775 5773 5772 5769 5767 5764
5798 5800 5802 5802 5801 5801 5802 5803 5803 5803 5804 5804 5805 5805 5806 5806 5807 5808 5808 5809 5809 5810 5810 5810 5811 5811 5811 5812 5812 5812 5812 5812 5811 5811 5810 5809 5808 5807 5806 5804 5803 5801 5800 5799 5797 5795 5793 5791 5789 5786 5784 5782 5779 5777 5776 5774 5772 5770 5768 5765 5762 5760
5796 5798 5799 5799 5799 5799 5799 5800 5800 5801 5802 5802 5803 5803 5804 5805 5805 5806 5807 5807 5808 5809 5809 5809 5809 5810 5810 5811 5811 5811 5811 5810 5810 5809 5807 5807 5806 5805 5803 5802 5800 5799 5798 5796 5794 5792 5789 5787 5785 5783 5780 5778 5776 5774 5773 5771 5769 5767 5764 5762 5759 5756
5794 5795 5796 5796 5796 5796 5797 5798 5798 5799 5800 5800 5801 5802 5802 5803 5804 5804 5805 5806 5807 5807 5807 5807 5808 5809 5809 5809 5810 5810 5809 5808 5807 5806 5805 5804 5803 5802 5801 5799 5798 5796 5794 5792 5790 5788 5786 5784 5782 5780 5778 5775 5774 5772 5770 5768 5766 5763 5761 5758 5755 5752
5792 5793 5793 5793 5794 5794 5795 5796 5796 5798 5798 5799 5799 5800 5801 5801 5802 5803 5804 5805 5805 5806 5806 5806 5807 5807 5808 5808 5808 5808 5807 5806 5805 5803 5802 5801 5800 5799 5798 5796 5795 5793 5791 5789 5787 5785 5783 5781 5779 5777 5775 5773 5771 5769 5767 5764 5762 5759 5757 5754 5751 5748
5790 5790 5791 5791 5791 5792 5793 5794 5795 5796 5797 5797 5798 5799 5799 5800 5801 5802 5803 5804 5804 5804 5804 5805 5805 5806 5806 5807 5806 5806 5805 5803 5802 5801 5800 5799 5798 5796 5794 5793 5791 5789 5787 5785 5783 5782 5780 5778 5776 5774 5772 5770 5768 5766 5763 5761 5758 5755 5753 5750 5748 5745
5787 5788 5788 5789 5790 5790 5791 5792 5793 5794 5795 5796 5797 5798 5798 5799 5800 5801 5802 5802 5802 5802 5803 5803 5804 5804 5805 5805 5804 5803 5802 5801 5800 5798 5797 5796 5794 5793 5791 5789 5788 5786 5784 5782 5780 5778 5777 5775 5773 5771 5769 5767 5765 5762 5759 5757 5754 5752 5749 5747 5744 5741
5786 5786 5787 5788 5788 5789 5790 5791 5792 5792 5793 5794 5795 5796 5797 5798 5799 5800 5800 5800 5800 5800 5801 5802 5802 5803 5803 5802 5802 5801 5800 5798 5797 5796 5794 5793 5791 5790 5788 5786 5784 5782 5781 5779 5777 5775 5774 5772 5770 5768 5766 5764 5761 5759 5756 5753 5751 5748 5746 5743 5740 5737